Time,TemperatureF,DewpointF,PressureIn,WindDirection,WindDirectionDegrees,WindSpeedMPH,WindSpeedGustMPH,Humidity,HourlyPrecipIn,Conditions,Clouds,dailyrainin,SolarRadiationWatts/m^2,SoftwareType,DateUTC
2014-11-22 00:02:00,73.2,68.2,30.17,North,0,15.0,16.0,84,0.00,,,0.00,0.0,meteohub,2014-11-22 05:02:00,
2014-11-22 00:07:00,73.6,68.2,30.17,North,0,16.0,22.0,83,0.00,,,0.00,0.0,meteohub,2014-11-22 05:07:00,
2014-11-22 00:12:00,73.8,68.4,30.17,North,0,8.0,22.0,83,0.00,,,0.00,0.0,meteohub,2014-11-22 05:12:00,
2014-11-22 00:17:00,73.8,68.4,30.17,North,0,5.0,22.0,83,0.00,,,0.00,0.0,meteohub,2014-11-22 05:17:00,
2014-11-22 00:22:00,73.9,68.4,30.17,North,0,4.0,18.0,83,0.00,,,0.00,0.0,meteohub,2014-11-22 05:22:00,
2014-11-22 00:27:00,73.9,68.7,30.17,North,0,7.0,14.0,84,0.00,,,0.00,0.0,meteohub,2014-11-22 05:27:00,
2014-11-22 00:32:00,74.1,68.9,30.17,North,0,5.0,14.0,84,0.00,,,0.00,0.0,meteohub,2014-11-22 05:32:00,
2014-11-22 00:37:00,74.1,68.9,30.17,North,0,6.0,15.0,84,0.00,,,0.00,0.0,meteohub,2014-11-22 05:37:00,
2014-11-22 00:42:00,74.1,68.9,30.17,North,0,8.0,15.0,84,0.00,,,0.00,0.0,meteohub,2014-11-22 05:42:00,
2014-11-22 00:47:00,74.1,68.9,30.17,North,0,7.0,14.0,84,0.00,,,0.00,0.0,meteohub,2014-11-22 05:47:00,
2014-11-22 00:52:00,74.3,68.7,30.16,North,0,3.0,14.0,83,0.00,,,0.00,0.0,meteohub,2014-11-22 05:52:00,
2014-11-22 00:57:00,74.3,68.7,30.16,North,0,5.0,18.0,83,0.00,,,0.00,0.0,meteohub,2014-11-22 05:57:00,
2014-11-22 01:02:00,74.5,68.9,30.16,North,0,8.0,18.0,83,0.00,,,0.00,0.0,meteohub,2014-11-22 06:02:00,
2014-11-22 01:07:00,74.5,68.9,30.16,North,0,3.0,17.0,83,0.00,,,0.00,0.0,meteohub,2014-11-22 06:07:00,
2014-11-22 01:12:00,74.3,68.7,30.15,North,0,12.0,17.0,83,0.00,,,0.00,0.0,meteohub,2014-11-22 06:12:00,
2014-11-22 01:17:00,74.5,68.5,30.15,North,0,8.0,17.0,82,0.00,,,0.00,0.0,meteohub,2014-11-22 06:17:00,
2014-11-22 01:22:00,74.5,68.5,30.15,North,0,6.0,19.0,82,0.00,,,0.00,0.0,meteohub,2014-11-22 06:22:00,
2014-11-22 01:27:00,74.5,68.5,30.14,North,0,10.0,19.0,82,0.00,,,0.00,0.0,meteohub,2014-11-22 06:27:00,
2014-11-22 01:32:00,74.5,68.5,30.14,North,0,10.0,19.0,82,0.00,,,0.00,0.0,meteohub,2014-11-22 06:32:00,
2014-11-22 01:37:00,74.5,68.2,30.14,North,0,13.0,18.0,81,0.00,,,0.00,0.0,meteohub,2014-11-22 06:37:00,
2014-11-22 01:42:00,74.7,68.0,30.14,North,0,14.0,19.0,80,0.00,,,0.00,0.0,meteohub,2014-11-22 06:42:00,
2014-11-22 01:47:00,74.7,68.0,30.14,North,0,13.0,27.0,80,0.00,,,0.00,0.0,meteohub,2014-11-22 06:47:00,
2014-11-22 01:52:00,74.7,68.0,30.14,North,0,10.0,27.0,80,0.00,,,0.00,0.0,meteohub,2014-11-22 06:52:00,
2014-11-22 01:57:00,74.7,67.6,30.14,North,0,12.0,27.0,79,0.00,,,0.00,0.0,meteohub,2014-11-22 06:57:00,
2014-11-22 02:02:00,74.8,67.8,30.14,North,0,7.0,21.0,79,0.00,,,0.00,0.0,meteohub,2014-11-22 07:02:00,
2014-11-22 02:07:00,74.7,67.6,30.14,North,0,5.0,21.0,79,0.00,,,0.00,0.0,meteohub,2014-11-22 07:07:00,
2014-11-22 02:12:00,74.7,67.3,30.14,North,0,5.0,21.0,78,0.00,,,0.00,0.0,meteohub,2014-11-22 07:12:00,
2014-11-22 02:17:00,74.8,67.5,30.14,North,0,8.0,16.0,78,0.00,,,0.00,0.0,meteohub,2014-11-22 07:17:00,
2014-11-22 02:22:00,74.8,67.5,30.14,North,0,8.0,23.0,78,0.00,,,0.00,0.0,meteohub,2014-11-22 07:22:00,
2014-11-22 02:27:00,74.8,67.5,30.14,North,0,11.0,23.0,78,0.00,,,0.00,0.0,meteohub,2014-11-22 07:27:00,
2014-11-22 02:32:00,74.8,67.5,30.14,North,0,13.0,23.0,78,0.00,,,0.00,0.0,meteohub,2014-11-22 07:32:00,
2014-11-22 02:37:00,74.8,67.5,30.14,North,0,6.0,18.0,78,0.00,,,0.00,0.0,meteohub,2014-11-22 07:37:00,
2014-11-22 02:42:00,74.8,67.8,30.14,North,0,12.0,18.0,79,0.00,,,0.00,0.0,meteohub,2014-11-22 07:42:00,
2014-11-22 02:47:00,74.8,68.2,30.14,North,0,6.0,18.0,80,0.00,,,0.00,0.0,meteohub,2014-11-22 07:47:00,
2014-11-22 02:52:00,74.8,68.2,30.14,North,0,9.0,17.0,80,0.00,,,0.00,0.0,meteohub,2014-11-22 07:52:00,
2014-11-22 02:57:00,74.8,68.2,30.14,North,0,8.0,17.0,80,0.00,,,0.00,0.0,meteohub,2014-11-22 07:57:00,
2014-11-22 03:02:00,74.8,68.5,30.14,North,0,5.0,16.0,81,0.00,,,0.00,0.0,meteohub,2014-11-22 08:02:00,
2014-11-22 03:07:00,74.8,68.5,30.14,North,0,6.0,14.0,81,0.00,,,0.00,0.0,meteohub,2014-11-22 08:07:00,
2014-11-22 03:12:00,74.8,68.5,30.14,North,0,0.0,14.0,81,0.00,,,0.00,0.0,meteohub,2014-11-22 08:12:00,
2014-11-22 03:17:00,74.8,68.5,30.14,North,0,10.0,16.0,81,0.00,,,0.00,0.0,meteohub,2014-11-22 08:17:00,
2014-11-22 03:22:00,74.8,68.5,30.14,North,0,8.0,17.0,81,0.00,,,0.00,0.0,meteohub,2014-11-22 08:22:00,
2014-11-22 03:27:00,74.8,68.5,30.14,North,0,10.0,17.0,81,0.00,,,0.00,0.0,meteohub,2014-11-22 08:27:00,
2014-11-22 03:32:00,74.8,68.9,30.14,North,0,9.0,17.0,82,0.00,,,0.00,0.0,meteohub,2014-11-22 08:32:00,
2014-11-22 03:37:00,74.8,68.9,30.14,North,0,9.0,16.0,82,0.00,,,0.00,0.0,meteohub,2014-11-22 08:37:00,
2014-11-22 03:42:00,74.8,68.9,30.14,North,0,8.0,17.0,82,0.00,,,0.00,0.0,meteohub,2014-11-22 08:42:00,
2014-11-22 03:47:00,75.0,69.1,30.14,North,0,5.0,18.0,82,0.00,,,0.00,0.0,meteohub,2014-11-22 08:47:00,
2014-11-22 03:52:00,75.0,68.7,30.14,North,0,16.0,19.0,81,0.00,,,0.00,0.0,meteohub,2014-11-22 08:52:00,
2014-11-22 03:57:00,75.0,69.1,30.14,North,0,12.0,24.0,82,0.00,,,0.00,0.0,meteohub,2014-11-22 08:57:00,
2014-11-22 04:02:00,75.0,69.1,30.14,North,0,7.0,24.0,82,0.00,,,0.00,0.0,meteohub,2014-11-22 09:02:00,
2014-11-22 04:07:00,75.0,69.1,30.14,North,0,7.0,24.0,82,0.00,,,0.00,0.0,meteohub,2014-11-22 09:07:00,
2014-11-22 04:12:00,75.0,69.1,30.14,North,0,9.0,17.0,82,0.00,,,0.00,0.0,meteohub,2014-11-22 09:12:00,
2014-11-22 04:17:00,75.0,69.1,30.14,North,0,5.0,18.0,82,0.00,,,0.00,0.0,meteohub,2014-11-22 09:17:00,
2014-11-22 04:22:00,74.8,69.3,30.14,North,0,9.0,18.0,83,0.00,,,0.00,0.0,meteohub,2014-11-22 09:22:00,
2014-11-22 04:27:00,74.8,69.3,30.14,North,0,10.0,18.0,83,0.00,,,0.00,0.0,meteohub,2014-11-22 09:27:00,
2014-11-22 04:32:00,75.0,69.4,30.14,North,0,8.0,14.0,83,0.00,,,0.00,0.0,meteohub,2014-11-22 09:32:00,
2014-11-22 04:37:00,74.8,69.3,30.14,North,0,9.0,14.0,83,0.00,,,0.00,0.0,meteohub,2014-11-22 09:37:00,
2014-11-22 04:42:00,75.0,69.4,30.14,North,0,8.0,17.0,83,0.00,,,0.00,0.0,meteohub,2014-11-22 09:42:00,
2014-11-22 04:47:00,75.0,69.4,30.14,North,0,13.0,17.0,83,0.00,,,0.00,0.0,meteohub,2014-11-22 09:47:00,
2014-11-22 04:52:00,75.0,69.4,30.14,North,0,15.0,17.0,83,0.00,,,0.00,0.0,meteohub,2014-11-22 09:52:00,
2014-11-22 04:57:00,75.0,69.1,30.14,North,0,5.0,23.0,82,0.00,,,0.00,0.0,meteohub,2014-11-22 09:57:00,
2014-11-22 05:02:00,75.2,69.3,30.14,North,0,5.0,23.0,82,0.00,,,0.00,0.0,meteohub,2014-11-22 10:02:00,
2014-11-22 05:07:00,75.0,69.1,30.14,North,0,9.0,23.0,82,0.00,,,0.00,0.0,meteohub,2014-11-22 10:07:00,
2014-11-22 05:12:00,75.2,69.3,30.14,North,0,10.0,18.0,82,0.00,,,0.00,0.0,meteohub,2014-11-22 10:12:00,
2014-11-22 05:17:00,75.2,69.3,30.14,North,0,9.0,18.0,82,0.00,,,0.00,0.0,meteohub,2014-11-22 10:17:00,
2014-11-22 05:22:00,75.4,69.4,30.14,North,0,12.0,20.0,82,0.00,,,0.00,0.0,meteohub,2014-11-22 10:22:00,
2014-11-22 05:27:00,75.0,69.4,30.15,North,0,7.0,20.0,83,0.00,,,0.00,0.0,meteohub,2014-11-22 10:27:00,
2014-11-22 05:32:00,75.0,69.4,30.14,North,0,5.0,20.0,83,0.00,,,0.00,0.0,meteohub,2014-11-22 10:32:00,
2014-11-22 05:37:00,75.0,69.4,30.14,North,0,11.0,18.0,83,0.00,,,0.00,0.0,meteohub,2014-11-22 10:37:00,
2014-11-22 05:42:00,75.2,69.6,30.15,North,0,10.0,14.0,83,0.00,,,0.00,0.0,meteohub,2014-11-22 10:42:00,
2014-11-22 05:47:00,75.4,69.8,30.15,North,0,8.0,18.0,83,0.00,,,0.00,0.0,meteohub,2014-11-22 10:47:00,
2014-11-22 05:52:00,75.4,69.8,30.15,North,0,6.0,18.0,83,0.00,,,0.00,0.0,meteohub,2014-11-22 10:52:00,
2014-11-22 05:57:00,75.4,69.8,30.15,North,0,11.0,18.0,83,0.00,,,0.00,0.0,meteohub,2014-11-22 10:57:00,
2014-11-22 06:02:00,75.4,69.4,30.16,North,0,6.0,19.0,82,0.00,,,0.00,0.0,meteohub,2014-11-22 11:02:00,
2014-11-22 06:07:00,75.6,69.6,30.16,North,0,9.0,19.0,82,0.00,,,0.00,0.0,meteohub,2014-11-22 11:07:00,
2014-11-22 06:12:00,75.6,69.6,30.16,North,0,14.0,19.0,82,0.00,,,0.00,0.0,meteohub,2014-11-22 11:12:00,
2014-11-22 06:17:00,75.6,69.6,30.16,North,0,7.0,18.0,82,0.00,,,0.00,0.0,meteohub,2014-11-22 11:17:00,
2014-11-22 06:22:00,75.6,69.6,30.16,North,0,4.0,18.0,82,0.00,,,0.00,0.0,meteohub,2014-11-22 11:22:00,
2014-11-22 06:27:00,75.6,70.0,30.17,North,0,8.0,18.0,83,0.00,,,0.00,0.0,meteohub,2014-11-22 11:27:00,
2014-11-22 06:32:00,75.6,69.6,30.16,North,0,8.0,18.0,82,0.00,,,0.00,0.0,meteohub,2014-11-22 11:32:00,
2014-11-22 06:37:00,75.6,69.6,30.16,North,0,7.0,19.0,82,0.00,,,0.00,0.0,meteohub,2014-11-22 11:37:00,
2014-11-22 06:42:00,75.6,69.6,30.15,North,0,10.0,19.0,82,0.00,,,0.00,0.0,meteohub,2014-11-22 11:42:00,
2014-11-22 06:47:00,75.6,69.6,30.16,North,0,16.0,19.0,82,0.00,,,0.00,0.0,meteohub,2014-11-22 11:47:00,
2014-11-22 06:52:00,75.7,69.8,30.16,North,0,6.0,19.0,82,0.00,,,0.00,0.0,meteohub,2014-11-22 11:52:00,
2014-11-22 06:57:00,75.6,69.6,30.16,North,0,5.0,19.0,82,0.00,,,0.00,9.0,meteohub,2014-11-22 11:57:00,
2014-11-22 07:02:00,75.6,69.6,30.17,North,0,11.0,17.0,82,0.00,,,0.00,7.0,meteohub,2014-11-22 12:02:00,
2014-11-22 07:07:00,75.7,69.8,30.17,North,0,11.0,16.0,82,0.00,,,0.00,9.0,meteohub,2014-11-22 12:07:00,
2014-11-22 07:12:00,75.7,69.8,30.17,North,0,5.0,16.0,82,0.00,,,0.00,7.0,meteohub,2014-11-22 12:12:00,
2014-11-22 07:17:00,75.7,69.8,30.17,North,0,4.0,18.0,82,0.00,,,0.00,12.0,meteohub,2014-11-22 12:17:00,
2014-11-22 07:22:00,75.7,69.8,30.17,North,0,15.0,18.0,82,0.00,,,0.00,16.0,meteohub,2014-11-22 12:22:00,
2014-11-22 07:27:00,75.7,69.8,30.17,North,0,3.0,18.0,82,0.00,,,0.00,12.0,meteohub,2014-11-22 12:27:00,
2014-11-22 07:33:00,75.7,69.8,30.17,North,0,8.0,17.0,82,0.00,,,0.00,25.0,meteohub,2014-11-22 12:33:00,
2014-11-22 07:38:00,75.7,69.8,30.17,North,0,8.0,17.0,82,0.00,,,0.00,26.0,meteohub,2014-11-22 12:38:00,
2014-11-22 07:43:00,75.9,70.0,30.17,North,0,7.0,21.0,82,0.00,,,0.00,39.0,meteohub,2014-11-22 12:43:00,
2014-11-22 07:48:00,75.9,70.0,30.17,North,0,8.0,21.0,82,0.00,,,0.00,63.0,meteohub,2014-11-22 12:48:00,
2014-11-22 07:53:00,76.1,70.2,30.17,North,0,2.0,19.0,82,0.00,,,0.00,65.0,meteohub,2014-11-22 12:53:00,
2014-11-22 07:58:00,76.1,70.2,30.17,North,0,12.0,20.0,82,0.00,,,0.00,77.0,meteohub,2014-11-22 12:58:00,
2014-11-22 08:03:00,76.3,70.3,30.17,North,0,7.0,24.0,82,0.00,,,0.00,69.0,meteohub,2014-11-22 13:03:00,
2014-11-22 08:08:00,76.3,70.3,30.17,North,0,8.0,24.0,82,0.00,,,0.00,84.0,meteohub,2014-11-22 13:08:00,
2014-11-22 08:13:00,76.3,70.3,30.17,North,0,12.0,22.0,82,0.00,,,0.00,69.0,meteohub,2014-11-22 13:13:00,
2014-11-22 08:18:00,76.5,70.5,30.17,North,0,7.0,19.0,82,0.00,,,0.00,146.0,meteohub,2014-11-22 13:18:00,
2014-11-22 08:23:00,76.6,70.3,30.17,North,0,9.0,18.0,81,0.00,,,0.00,76.0,meteohub,2014-11-22 13:23:00,
2014-11-22 08:28:00,76.6,70.3,30.17,North,0,11.0,21.0,81,0.00,,,0.00,142.0,meteohub,2014-11-22 13:28:00,
2014-11-22 08:33:00,76.6,70.0,30.17,North,0,15.0,21.0,80,0.00,,,0.00,86.0,meteohub,2014-11-22 13:33:00,
2014-11-22 08:38:00,76.6,70.3,30.17,North,0,14.0,21.0,81,0.00,,,0.00,88.0,meteohub,2014-11-22 13:38:00,
2014-11-22 08:43:00,76.6,70.3,30.17,North,0,8.0,20.0,81,0.00,,,0.00,102.0,meteohub,2014-11-22 13:43:00,
2014-11-22 08:48:00,76.6,70.3,30.18,North,0,6.0,22.0,81,0.00,,,0.00,171.0,meteohub,2014-11-22 13:48:00,
2014-11-22 08:53:00,76.8,70.5,30.18,North,0,7.0,22.0,81,0.00,,,0.00,156.0,meteohub,2014-11-22 13:53:00,
2014-11-22 08:58:00,77.0,70.7,30.18,North,0,15.0,22.0,81,0.00,,,0.00,125.0,meteohub,2014-11-22 13:58:00,
2014-11-22 09:03:00,77.0,70.3,30.18,North,0,7.0,21.0,80,0.00,,,0.00,132.0,meteohub,2014-11-22 14:03:00,
2014-11-22 09:08:00,77.0,70.3,30.19,North,0,9.0,22.0,80,0.00,,,0.00,105.0,meteohub,2014-11-22 14:08:00,
2014-11-22 09:13:00,77.0,70.7,30.19,North,0,7.0,23.0,81,0.00,,,0.00,79.0,meteohub,2014-11-22 14:13:00,
2014-11-22 09:18:00,76.8,70.5,30.19,North,0,11.0,23.0,81,0.00,,,0.00,93.0,meteohub,2014-11-22 14:18:00,
2014-11-22 09:23:00,76.8,70.2,30.19,North,0,8.0,23.0,80,0.00,,,0.00,86.0,meteohub,2014-11-22 14:23:00,
2014-11-22 09:28:00,76.8,70.2,30.19,North,0,10.0,19.0,80,0.00,,,0.00,120.0,meteohub,2014-11-22 14:28:00,
2014-11-22 09:33:00,76.8,70.2,30.19,North,0,6.0,19.0,80,0.00,,,0.00,95.0,meteohub,2014-11-22 14:33:00,
2014-11-22 09:38:00,76.8,70.2,30.19,North,0,13.0,18.0,80,0.00,,,0.00,132.0,meteohub,2014-11-22 14:38:00,
2014-11-22 09:43:00,76.8,70.2,30.19,North,0,10.0,20.0,80,0.00,,,0.00,83.0,meteohub,2014-11-22 14:43:00,
2014-11-22 09:48:00,76.8,70.2,30.19,North,0,11.0,20.0,80,0.00,,,0.00,79.0,meteohub,2014-11-22 14:48:00,